Theta_e
309 309 309 310 310 311 311 312 312 313 313 314 315 316 317 316 315 299 295 299 305 313 312 300 300 300 301 301 306 307 298 295 298 294 296 291 292 291 291 289 288 288 289 289 291
308 308 308 309 309 310 310 311 311 312 312 312 313 314 315 315 304 294 302 309 310 312 297 296 298 298 296 299 301 302 297 297 300 298 294 291 293 290 291 289 288 287 287 289 290
307 307 307 308 309 309 309 310 311 311 311 310 310 313 314 310 295 293 305 307 308 307 298 296 296 298 296 299 297 300 297 299 295 294 293 292 291 290 290 289 291 289 286 288 288
307 306 307 307 307 308 309 309 310 310 310 309 309 312 313 301 284 290 304 304 305 299 297 296 296 294 293 294 297 294 292 294 296 294 293 291 290 290 290 292 290 290 288 288 287
306 306 306 306 307 307 309 309 309 310 309 309 309 311 300 290 291 290 300 296 293 295 294 295 295 295 291 292 294 293 291 291 292 292 292 294 291 291 291 288 287 287 288 287 287
305 305 306 306 307 308 308 309 309 310 308 307 308 310 293 284 289 289 289 291 291 292 292 294 294 295 291 290 291 289 289 289 288 288 288 289 289 289 288 286 285 286 286 286 287
306 305 305 306 306 307 308 308 308 308 306 307 308 304 290 288 287 287 289 289 290 291 292 293 294 293 291 288 289 288 287 286 285 286 286 288 288 287 286 285 284 285 285 285 286
305 305 305 305 306 307 307 308 308 307 305 303 309 289 285 288 287 288 288 289 290 291 292 292 293 291 290 289 287 285 286 282 283 285 285 287 287 286 285 284 283 283 283 284 284
304 304 305 304 305 306 307 308 308 306 305 303 288 284 282 292 286 286 286 287 288 291 291 294 291 287 287 285 283 282 281 280 283 284 283 283 283 283 283 284 283 282 282 283 283
304 304 304 304 305 306 307 305 304 295 294 292 288 282 284 282 285 286 286 287 289 290 290 289 285 282 282 283 279 280 280 280 281 281 280 280 281 282 282 281 283 282 282 282 282
304 304 303 304 304 306 296 288 285 284 283 282 281 280 282 285 287 285 286 287 288 287 282 284 280 279 282 282 279 281 280 279 279 280 280 279 279 282 282 280 281 281 280 280 281
304 303 303 304 304 305 289 284 283 283 279 281 281 281 282 283 281 283 286 283 284 280 282 280 277 281 283 282 280 279 278 277 279 279 278 276 277 279 279 281 283 283 282 281 280
304 303 302 303 303 293 285 285 288 285 278 279 280 280 280 282 279 280 283 283 281 279 279 277 276 279 280 279 279 278 278 277 278 277 276 274 276 277 278 278 279 282 284 283 283
303 302 302 302 294 287 285 288 289 286 274 278 278 279 281 283 278 283 283 283 279 278 278 276 276 278 278 278 280 277 278 279 277 276 273 274 271 274 275 276 277 279 281 283 283
303 302 302 301 286 286 287 289 289 287 268 279 277 283 281 279 278 280 283 280 277 276 277 275 274 276 277 278 278 277 277 277 276 273 271 270 270 273 274 275 278 279 280 282 283
303 302 300 297 289 288 290 289 286 275 267 273 277 276 277 279 278 278 279 281 278 276 275 273 275 275 277 277 277 277 277 277 275 273 266 271 273 273 274 277 279 278 279 280 281
303 301 297 294 287 290 289 286 276 267 276 272 273 276 276 276 276 276 276 275 274 271 272 273 274 274 277 276 278 276 275 271 266 264 268 269 268 278 277 278 279 280 279 280 281
303 299 294 291 290 291 288 279 264 269 268 276 275 276 275 276 275 275 273 272 275 275 271 270 269 272 275 275 275 275 275 271 264 264 267 269 267 275 277 278 279 278 279 280 280
299 289 289 290 292 290 283 266 270 273 276 275 275 274 274 275 274 273 272 270 276 277 275 267 270 272 275 274 274 273 271 274 268 261 264 269 272 277 277 278 277 277 277 279 281
290 287 286 290 292 287 276 273 271 277 277 276 276 276 273 272 272 272 271 273 275 278 278 274 267 272 272 273 273 272 275 271 269 263 261 268 267 273 277 278 277 276 277 279 278
288 283 286 291 289 279 271 270 275 279 279 277 276 272 274 272 274 271 271 275 274 276 278 273 271 268 271 269 271 270 269 270 271 268 265 263 270 275 279 279 278 279 279 280 279
285 280 286 289 279 264 265 272 280 278 279 278 278 277 275 274 272 270 271 274 276 278 275 277 269 263 267 267 269 268 270 271 268 265 266 265 272 278 278 278 278 278 278 277 278
283 281 287 287 274 267 268 273 278 277 277 278 277 278 277 275 274 274 273 276 277 278 276 276 267 261 266 266 268 264 270 273 270 268 265 265 273 275 276 277 278 278 278 278 278
282 276 280 283 277 275 274 273 274 279 278 279 277 277 275 274 275 274 273 276 277 278 283 279 264 266 267 268 266 261 264 271 266 261 270 272 275 275 276 277 277 276 277 277 278
285 281 280 273 273 274 276 275 274 275 278 279 276 275 275 273 273 271 274 275 276 279 278 276 265 261 263 266 264 263 261 268 269 273 269 274 274 277 279 277 278 277 276 277 277
283 281 279 279 274 277 278 273 276 277 276 274 275 277 277 276 277 275 277 275 277 274 275 270 266 260 262 267 268 264 265 265 271 273 273 273 273 276 277 277 276 278 277 277 278
286 285 283 281 276 276 275 278 278 280 280 280 278 278 276 277 281 282 282 281 279 274 273 268 266 264 264 267 267 264 268 266 267 266 273 270 276 276 277 277 279 277 277 278 279
Wind_Speed
8 9 9 10 10 10 11 11 11 11 12 11 12 10 9 11 10 1 3 3 5 10 7 5 2 3 1 2 1 1 3 3 4 6 3 5 5 1 1 6 2 2 2 2 18
8 9 9 10 10 10 10 11 11 11 12 12 11 10 10 11 2 3 1 6 7 7 3 3 1 3 2 1 1 2 3 8 2 3 3 5 3 8 5 4 3 2 4 12 15
6 9 10 9 10 11 10 10 11 11 12 11 11 10 9 6 2 1 6 6 4 2 1 1 1 1 2 0 1 2 5 2 1 2 2 5 3 4 7 4 7 8 12 13 13
7 8 10 10 9 10 10 11 11 12 11 10 10 9 8 2 6 2 8 7 5 1 2 2 2 4 3 4 2 2 1 3 1 2 3 4 6 4 5 1 2 1 17 13 14
7 8 9 10 10 9 10 10 11 11 11 10 8 6 3 1 5 3 8 7 2 3 2 2 3 4 4 4 2 3 3 1 1 3 2 4 2 4 5 1 3 11 13 13 11
8 8 9 10 11 10 9 9 11 11 11 7 6 3 1 3 1 5 7 1 3 1 1 1 3 2 4 3 4 3 2 2 1 1 1 4 3 1 3 4 7 10 10 10 11
8 9 10 10 11 10 11 10 9 10 8 7 2 1 1 8 1 4 6 1 1 1 3 0 0 1 4 4 3 4 2 1 4 2 2 1 5 8 3 6 8 8 7 7 7
9 9 10 11 11 10 10 11 10 7 6 3 2 1 6 0 1 4 6 1 4 1 1 1 1 5 3 3 4 3 2 3 1 3 1 3 7 4 5 8 8 8 6 7 7
9 9 10 11 11 10 10 11 11 7 4 1 1 2 5 1 2 3 4 2 4 1 1 2 5 4 3 5 2 4 4 3 3 4 3 5 6 2 4 6 7 8 8 8 7
9 9 10 11 10 11 12 10 6 3 3 3 1 1 1 1 2 3 2 2 1 3 3 4 5 4 2 4 7 6 5 5 5 4 1 3 13 3 5 7 10 8 8 8 9
9 8 9 10 9 10 6 4 5 2 1 6 2 1 1 5 3 3 3 0 2 3 4 1 4 9 9 6 3 4 3 4 2 2 4 7 9 10 7 6 8 10 10 11 12
8 7 9 9 9 7 2 3 3 3 5 1 1 1 1 1 0 1 3 4 3 4 4 3 7 3 2 4 4 3 4 5 1 2 2 4 13 11 10 10 13 15 14 14 7
7 8 8 9 8 2 2 2 2 2 1 1 1 1 2 0 1 2 2 3 3 5 6 6 1 1 3 4 6 4 5 4 3 1 2 5 9 8 7 7 6 10 10 11 16
6 8 8 8 2 1 2 2 2 2 6 4 1 0 1 0 1 1 3 2 3 8 7 2 1 3 3 4 6 5 4 4 5 3 5 1 9 7 6 7 8 13 15 15 16
7 7 6 3 2 2 1 1 1 3 3 1 1 2 1 2 2 3 2 1 5 5 4 4 3 3 3 3 2 3 1 5 2 3 2 2 2 9 2 7 14 16 15 17 17
8 5 4 1 1 2 1 1 3 9 9 1 2 1 3 2 2 1 2 7 3 4 3 2 1 1 1 2 2 6 5 5 4 3 4 9 8 8 8 11 7 7 13 16 15
8 5 3 2 2 1 3 3 6 6 4 4 3 2 1 3 1 2 3 4 6 5 4 0 2 1 1 5 3 1 5 2 4 3 9 1 2 15 7 8 7 13 13 14 14
10 8 1 1 0 1 2 7 4 4 7 1 4 3 3 5 1 2 2 3 4 4 3 6 6 7 3 1 6 6 4 8 10 6 5 2 11 11 7 4 7 7 8 10 14
12 1 1 0 2 1 5 3 11 8 6 9 2 4 1 1 3 2 6 5 7 11 9 6 4 1 2 2 2 6 6 2 7 2 3 6 10 12 7 10 6 8 9 15 16
4 2 1 4 1 4 5 9 5 4 6 3 6 1 5 3 3 2 5 5 4 6 2 4 2 2 1 1 0 4 1 3 3 2 6 6 7 8 5 10 8 9 15 15 11
5 2 3 5 2 5 5 9 7 6 5 6 7 4 2 7 8 4 5 5 2 2 5 4 5 2 2 7 8 2 2 1 1 4 6 2 10 11 13 5 16 17 14 15 15
4 3 3 3 2 2 4 8 6 5 2 4 4 4 7 6 5 4 8 6 4 5 8 5 6 5 9 1 0 3 8 7 6 7 4 2 17 5 6 6 7 8 7 5 7
4 2 1 2 5 4 4 5 3 4 6 6 8 7 5 8 1 8 7 3 6 6 7 6 3 2 7 5 4 5 7 5 4 3 8 6 10 1 4 6 5 8 10 10 8
4 4 2 1 2 4 7 5 4 3 2 5 3 5 4 6 3 6 8 2 3 4 3 3 2 9 10 8 6 5 6 11 6 4 10 22 19 7 6 7 6 7 7 8 10
1 4 3 5 6 7 2 4 6 6 3 6 3 8 9 4 0 6 4 2 2 5 2 6 6 3 4 4 4 6 6 13 20 26 14 16 25 18 13 9 7 8 7 9 11
3 2 1 3 2 13 12 5 10 5 10 5 6 13 14 14 15 7 8 2 7 1 7 1 5 3 6 2 6 8 10 11 22 19 23 22 33 7 9 5 5 9 10 12 13
2 1 1 3 2 4 5 13 17 12 5 10 15 8 8 19 13 4 5 12 7 10 9 6 6 4 9 3 1 13 17 18 10 8 14 23 30 5 9 11 13 10 13 17 18
Wind_Direction
337 330 324 320 322 322 322 320 320 327 329 326 329 330 330 328 319 167 252 339 320 316 321 265 287 341 115 124 63 155 98 212 222 164 206 157 144 18 112 114 81 3 13 80 130
336 333 321 317 316 318 318 320 318 325 323 324 326 327 328 332 296 236 83 331 322 330 35 38 92 341 66 135 49 133 178 213 204 157 181 170 187 158 157 131 180 152 54 129 137
331 330 328 320 317 319 320 315 321 322 318 320 321 320 322 329 312 221 339 327 320 326 74 131 151 106 175 267 168 171 221 205 133 93 103 150 133 163 139 217 194 190 158 156 152
335 331 324 322 315 315 315 322 321 316 316 317 313 315 316 300 225 169 332 330 332 139 163 194 138 130 151 198 218 205 218 273 182 13 119 171 118 190 211 132 12 135 156 156 162
315 319 316 320 315 309 313 320 315 316 319 316 303 305 342 118 253 341 335 329 98 153 190 176 159 154 178 166 162 211 172 59 23 86 90 132 207 263 220 83 58 125 149 159 158
313 313 318 316 311 310 308 314 316 323 317 309 288 304 132 209 107 339 335 349 46 88 120 177 195 158 113 132 176 113 118 143 19 110 69 178 211 131 176 131 120 144 155 159 161
310 315 318 314 309 312 310 308 315 319 316 316 271 69 125 230 332 332 11 59 346 72 142 107 46 127 115 123 148 131 123 229 199 194 183 163 255 227 144 147 149 160 157 164 176
304 308 307 310 309 310 309 310 304 304 316 333 117 60 236 253 234 32 333 28 9 6 97 110 116 104 77 129 51 102 58 178 171 167 246 166 254 167 160 152 172 176 178 178 185
292 298 306 313 315 310 309 301 299 294 301 350 355 203 266 175 50 312 13 359 311 358 65 72 66 95 84 112 45 19 228 198 285 210 161 190 260 142 168 180 190 196 193 194 191
285 301 310 319 317 313 306 301 292 14 37 69 261 22 20 258 307 341 340 324 123 119 73 58 57 90 56 141 221 193 214 225 223 184 187 206 257 210 195 190 204 203 206 208 205
283 299 309 319 316 314 350 42 31 343 282 185 178 123 300 295 286 22 5 157 123 66 158 16 119 208 194 196 121 133 189 222 200 183 206 236 262 256 198 210 215 210 210 213 215
274 294 304 318 313 315 71 135 174 153 300 121 128 205 231 261 88 57 350 151 155 170 126 51 229 189 95 157 154 165 188 230 251 169 204 328 273 254 196 215 207 204 208 210 189
266 283 295 311 308 18 171 172 144 95 152 276 189 200 153 257 209 178 5 157 122 149 193 168 203 126 161 156 169 209 193 177 232 191 224 314 275 243 227 212 196 211 209 200 199
243 269 287 303 309 236 246 152 82 105 65 244 200 295 18 169 247 325 358 124 42 196 159 219 66 164 158 197 160 225 190 153 147 140 245 321 283 283 235 246 221 212 205 201 194
228 260 292 277 182 146 251 95 348 56 1 324 140 295 18 137 110 19 4 14 158 143 117 224 167 166 173 187 201 226 114 124 93 115 359 187 303 266 58 250 232 221 208 205 196
198 238 289 111 73 240 78 85 69 47 252 254 5 139 114 49 62 349 58 49 138 104 52 93 339 328 115 79 17 151 80 58 59 85 289 195 187 231 196 208 236 194 205 199 190
188 186 194 133 241 111 119 62 53 148 320 272 167 181 159 159 132 143 172 174 159 98 220 74 206 151 188 97 33 10 111 17 344 356 233 11 230 260 273 236 226 209 198 191 184
165 155 103 174 67 191 88 61 127 241 221 177 122 111 186 150 97 139 145 236 221 100 115 168 297 173 161 239 184 198 183 166 203 204 252 22 236 247 243 276 237 240 187 170 183
138 57 103 252 193 21 90 104 204 202 159 149 121 150 296 20 133 151 207 220 215 176 174 130 271 2 40 355 70 196 213 161 101 54 31 222 281 286 244 251 231 217 173 189 190
114 154 91 338 219 70 81 227 224 190 132 165 174 175 166 179 143 174 188 213 247 198 68 194 28 357 353 255 113 155 279 104 9 239 260 267 276 244 270 247 223 217 208 190 187
80 120 354 349 337 56 185 221 226 223 161 174 192 142 179 163 161 215 229 264 263 102 80 122 119 298 55 204 181 127 233 41 164 154 185 272 259 217 240 251 205 209 208 195 183
104 180 350 342 90 12 172 197 213 175 146 222 130 160 166 162 160 198 227 225 171 162 166 199 140 178 205 252 7 177 198 173 154 232 240 192 253 197 239 269 231 205 191 179 180
114 103 347 25 192 235 284 268 252 145 184 186 206 196 169 172 191 189 190 192 180 177 168 196 243 23 335 351 358 216 199 202 134 102 216 189 259 3 268 278 249 213 194 189 177
135 152 103 208 122 205 197 226 226 204 208 178 171 89 134 181 258 202 204 166 186 198 108 119 148 178 194 201 132 193 218 199 153 161 225 233 263 315 291 261 256 238 211 183 181
130 187 174 179 240 210 210 183 175 209 219 176 233 201 172 167 290 222 189 127 182 219 111 149 225 158 261 217 160 207 196 200 207 226 215 262 243 233 254 253 242 211 190 176 184
3 350 34 163 291 196 203 240 219 218 157 236 219 219 200 215 212 219 152 175 228 350 166 287 237 119 285 270 212 259 227 213 222 238 252 267 268 220 249 261 229 206 190 195 197
14 221 346 177 161 160 210 205 221 228 240 229 210 227 193 223 232 234 203 180 197 166 185 166 149 118 266 341 95 285 219 200 205 206 211 231 246 192 247 234 236 213 197 200 202